THORAD AGENA D DEB, 16715

Orbit data source: Space-Track

THORAD AGENA D DEB, 16715 is space debris in SSO originally from a launch on Wed, 08 Apr 1970 UTC launched from the Air Force Western Test Range (AFWTR). Debris objects in space refer to the collection of defunct objects orbiting the Earth. Examples of debris include non-operational satellites, rocket bodies, and fragments generated from explosions, collisions, or faulty payload assembly.

Loading next visibility...
Identifier
16715, 1970-025PA
Orbit
SSO
Country
Flag of USUS
Related business
Manufacturer
Unknown
Mission
Spacecraft
Bus & Motor
Unknown
Mass
Unknown
Launch date (UTC)
1970-04-08 (56 years ago)
Launch vehicle
Unknown
Launch site
Air Force Western Test Range (AFWTR)
Object type
Payload
Rocket body
Debris
Shape & HBR
Unknown shape, 0.1 m
Radar Cross Section
Small (<0.1 m²)

Expand to show TLE details & history
Last TLE update: 12 hours ago

TLE from 12 hours ago
0 THORAD AGENA D DEB
1 16715U 70025PA  25299.40395308  .00000313  00000-0  47314-3 0  9992
2 16715 100.1156 103.9925 0005879 297.3112  93.5822 13.61379541 13923
Epoch: 2025-10-26T09:41Z
TLE epoch observation values (Epoch: 2025-10-26T09:41:41.546Z)
Latitude
30.48077°
Longitude
-82.44775°
Altitude
1,034.681 km
Speed
7.337 km/s
True Right ascension
06h 31m 59s
True Declination
30° 20' 11"
Sunlit
Object was in daylight at epoch
Visualization orbit readout
Latitude
Unknown
Longitude
Unknown
Altitude
Unknown
Speed
Unknown
Apparent Right ascension
Unknown
Apparent Declination
Unknown
Sunlit
N/A
Visualization observer readout
Local Sidereal Time
17:00:40
Azimuth
Unknown
Elevation
Unknown
Doppler factor
Unknown
Orbital elements
Apogee altitude
1,032.345 km
Perigee altitude
1,023.637 km
Semi-major axis
7,406.128 km
Eccentricity
0.00059
Inclination
100.1156°
RAAN
103.9925°
Arg. of periapsis
297.3112°
True anomaly
93.64943°
Mean anomaly
93.5822°
Eccentric anomaly
93.61582°
Mean motion
3.40531 °/min
Orbital period
105.72 mins
BSTAR
0.00047314
Loading maneuver chart data...
Computing Atmospheric mass density...

Documentation

Showing up to 5 results
|